| time (UTC) | temp C | wind direction | speed KPH | gust KPH | rain 1hr cm | rain 24hr cm | rain mn cm | humidity % | barometer mb |
| 20260507111916 | 4 | 320 | 0.0 | 0.0 | 0.00 | 0.00 | 0.00 | 94 | 1019.1 |
| 20260507110918 | 4 | 320 | 0.0 | 1.6 | 0.00 | 0.00 | 0.00 | 94 | 1018.8 |
| 20260507110358 | 4 | 320 | 0.0 | 1.6 | 0.00 | 0.00 | 0.00 | 94 | 1018.6 |
| 20260507104917 | 3 | 320 | 0.0 | 0.0 | 0.00 | 0.00 | 0.00 | 94 | 1018.6 |
| 20260507103919 | 3 | 320 | 0.0 | 0.0 | 0.00 | 0.00 | 0.00 | 94 | 1018.7 |
| 20260507102912 | 3 | 320 | 0.0 | 0.0 | 0.00 | 0.00 | 0.00 | 93 | 1018.6 |
| 20260507101911 | 3 | 320 | 0.0 | 0.0 | 0.00 | 0.00 | 0.00 | 93 | 1018.8 |
| 20260507100910 | 3 | 320 | 0.0 | 0.0 | 0.00 | 0.00 | 0.00 | 93 | 1018.8 |
| 20260507095911 | 3 | 320 | 0.0 | 1.6 | 0.00 | 0.00 | 0.00 | 93 | 1018.9 |
| 20260507094910 | 3 | 298 | 0.0 | 0.0 | 0.00 | 0.00 | 0.00 | 93 | 1018.8 |
| 20260507093912 | 4 | 298 | 0.0 | 0.0 | 0.00 | 0.00 | 0.00 | 93 | 1018.9 |
| 20260507091913 | 4 | 298 | 0.0 | 0.0 | 0.00 | 0.00 | 0.00 | 93 | 1018.7 |
| 20260507090911 | 4 | 298 | 0.0 | 1.6 | 0.00 | 0.00 | 0.00 | 92 | 1018.7 |
| 20260507085906 | 4 | 298 | 0.0 | 1.6 | 0.00 | 0.00 | 0.00 | 92 | 1018.7 |
| 20260507084905 | 4 | 298 | 0.0 | 3.2 | 0.00 | 0.00 | 0.00 | 92 | 1018.7 |
| 20260507084357 | 4 | 298 | 0.0 | 1.6 | 0.00 | 0.00 | 0.00 | 92 | 1018.6 |
| 20260507082901 | 4 | 298 | 0.0 | 0.0 | 0.00 | 0.00 | 0.00 | 92 | 1018.4 |
| 20260507081904 | 4 | 298 | 1.6 | 4.8 | 0.00 | 0.00 | 0.00 | 92 | 1018.4 |
| 20260507081350 | 5 | 293 | 0.0 | 4.8 | 0.00 | 0.00 | 0.00 | 91 | 1018.7 |
| 20260507075904 | 5 | 309 | 0.0 | 0.0 | 0.00 | 0.00 | 0.00 | 90 | 1018.4 |
| 20260507074903 | 5 | 310 | 0.0 | 1.6 | 0.00 | 0.00 | 0.00 | 91 | 1018.3 |
| 20260507073906 | 5 | 321 | 0.0 | 3.2 | 0.00 | 0.00 | 0.00 | 90 | 1018.3 |
| 20260507072900 | 5 | 321 | 0.0 | 0.0 | 0.00 | 0.00 | 0.00 | 90 | 1018.2 |
| 20260507071900 | 5 | 321 | 1.6 | 3.2 | 0.00 | 0.00 | 0.00 | 89 | 1018.4 |
| 20260507070857 | 5 | 325 | 0.0 | 0.0 | 0.00 | 0.00 | 0.00 | 89 | 1018.6 |
| 20260507065856 | 6 | 325 | 0.0 | 0.0 | 0.00 | 0.00 | 0.00 | 88 | 1018.8 |
| 20260507062855 | 7 | 293 | 0.0 | 0.0 | 0.00 | 0.00 | 0.00 | 82 | 1018.6 |
| 20260507060854 | 8 | 318 | 1.6 | 6.4 | 0.00 | 0.00 | 0.00 | 78 | 1018.7 |
| 20260507055848 | 8 | 331 | 6.4 | 8.0 | 0.00 | 0.00 | 0.00 | 78 | 1018.7 |
| 20260507054848 | 8 | 333 | 6.4 | 8.0 | 0.00 | 0.00 | 0.00 | 78 | 1018.7 |
| 20260507053848 | 8 | 355 | 4.8 | 8.0 | 0.00 | 0.00 | 0.00 | 79 | 1018.4 |
| 20260507052847 | 8 | 327 | 3.2 | 6.4 | 0.00 | 0.00 | 0.00 | 79 | 1018.6 |
| 20260507052323 | 8 | 325 | 3.2 | 4.8 | 0.00 | 0.00 | 0.00 | 78 | 1018.6 |
| 20260507050848 | 8 | 341 | 1.6 | 4.8 | 0.00 | 0.00 | 0.00 | 78 | 1018.3 |
| 20260507045845 | 8 | 331 | 1.6 | 4.8 | 0.00 | 0.00 | 0.00 | 79 | 1018.4 |
| 20260507044845 | 8 | 338 | 1.6 | 3.2 | 0.00 | 0.00 | 0.00 | 79 | 1018.3 |
| 20260507043844 | 8 | 318 | 1.6 | 4.8 | 0.00 | 0.00 | 0.00 | 79 | 1018.2 |
| 20260507043314 | 8 | 333 | 3.2 | 4.8 | 0.00 | 0.00 | 0.00 | 78 | 1018.0 |
| 20260507041849 | 9 | 329 | 1.6 | 4.8 | 0.00 | 0.00 | 0.00 | 78 | 1018.1 |
| 20260507040842 | 9 | 323 | 3.2 | 4.8 | 0.00 | 0.00 | 0.00 | 79 | 1018.1 |
| 20260507040341 | 9 | 333 | 1.6 | 4.8 | 0.00 | 0.00 | 0.00 | 79 | 1018.0 |
| 20260507034838 | 9 | 329 | 0.0 | 3.2 | 0.00 | 0.00 | 0.00 | 80 | 1017.9 |
| 20260507032836 | 10 | 335 | 3.2 | 4.8 | 0.00 | 0.00 | 0.00 | 79 | 1017.9 |
| 20260507031836 | 10 | 327 | 3.2 | 4.8 | 0.00 | 0.00 | 0.00 | 79 | 1017.8 |
| 20260507030838 | 10 | 327 | 3.2 | 4.8 | 0.00 | 0.00 | 0.00 | 79 | 1017.6 |
| 20260507025835 | 9 | 318 | 1.6 | 6.4 | 0.00 | 0.00 | 0.00 | 84 | 1017.5 |
| 20260507025338 | 9 | 321 | 0.0 | 0.0 | 0.00 | 0.00 | 0.00 | 85 | 1017.4 |
| 20260507023838 | 10 | 321 | 0.0 | 4.8 | 0.00 | 0.00 | 0.00 | 83 | 1017.3 |
| 20260507022834 | 10 | 317 | 0.0 | 3.2 | 0.00 | 0.00 | 0.00 | 83 | 1017.3 |
| 20260507021835 | 10 | 323 | 1.6 | 6.4 | 0.00 | 0.00 | 0.00 | 83 | 1017.2 |
| 20260507020835 | 10 | 313 | 4.8 | 6.4 | 0.00 | 0.00 | 0.00 | 82 | 1017.1 |
| 20260507015835 | 10 | 320 | 1.6 | 6.4 | 0.00 | 0.00 | 0.00 | 82 | 1017.0 |
| 20260507014836 | 10 | 293 | 0.0 | 3.2 | 0.00 | 0.00 | 0.00 | 81 | 1017.0 |
| 20260507013833 | 11 | 293 | 0.0 | 0.0 | 0.00 | 0.00 | 0.00 | 80 | 1016.9 |
| 20260507012836 | 11 | 293 | 0.0 | 1.6 | 0.00 | 0.00 | 0.00 | 79 | 1016.8 |
| 20260507011835 | 11 | 293 | 0.0 | 3.2 | 0.00 | 0.00 | 0.00 | 78 | 1016.5 |
| 20260507010835 | 12 | 293 | 0.0 | 3.2 | 0.00 | 0.00 | 0.00 | 75 | 1016.6 |
| 20260507005836 | 13 | 281 | 0.0 | 0.0 | 0.00 | 0.00 | 0.00 | 71 | 1016.6 |
| 20260507004835 | 13 | 281 | 0.0 | 0.0 | 0.00 | 0.05 | 0.00 | 71 | 1016.5 |
| 20260507003836 | 13 | 219 | 0.0 | 0.0 | 0.00 | 0.05 | 0.00 | 67 | 1016.4 |
| 20260507002832 | 13 | 219 | 0.0 | 0.0 | 0.00 | 0.05 | 0.00 | 65 | 1016.5 |
| 20260507001832 | 13 | 219 | 0.0 | 3.2 | 0.00 | 0.05 | 0.00 | 64 | 1016.5 |
| 20260507000833 | 13 | 48 | 0.0 | 4.8 | 0.00 | 0.05 | 0.00 | 64 | 1016.3 |
| 20260506235831 | 14 | 55 | 1.6 | 6.4 | 0.00 | 0.05 | 0.00 | 66 | 1016.2 |
| 20260506233830 | 14 | 38 | 1.6 | 4.8 | 0.00 | 0.05 | 0.00 | 64 | 1016.3 |
| 20260506232829 | 14 | 327 | 0.0 | 6.4 | 0.00 | 0.05 | 0.00 | 64 | 1016.3 |
| 20260506231832 | 14 | 24 | 0.0 | 3.2 | 0.00 | 0.05 | 0.00 | 63 | 1016.3 |
| 20260506230830 | 14 | 51 | 1.6 | 4.8 | 0.00 | 0.05 | 0.00 | 63 | 1016.2 |
| 20260506225830 | 14 | 74 | 3.2 | 9.7 | 0.00 | 0.05 | 0.00 | 61 | 1015.9 |
| 20260506223827 | 14 | 69 | 4.8 | 11.3 | 0.00 | 0.05 | 0.00 | 65 | 1015.5 |
| 20260506222823 | 14 | 355 | 6.4 | 16.1 | 0.00 | 0.05 | 0.00 | 65 | 1015.2 |
| 20260506221821 | 14 | 15 | 6.4 | 19.3 | 0.00 | 0.05 | 0.00 | 66 | 1014.8 |
| 20260506220816 | 14 | 22 | 6.4 | 16.1 | 0.00 | 0.05 | 0.00 | 66 | 1014.7 |
| 20260506215815 | 14 | 63 | 4.8 | 19.3 | 0.00 | 0.05 | 0.00 | 64 | 1015.0 |
| 20260506214814 | 14 | 28 | 4.8 | 16.1 | 0.00 | 0.05 | 0.00 | 64 | 1015.1 |
| 20260506213809 | 14 | 65 | 3.2 | 12.9 | 0.00 | 0.05 | 0.00 | 64 | 1015.3 |
| 20260506212809 | 14 | 98 | 3.2 | 12.9 | 0.00 | 0.05 | 0.00 | 65 | 1015.2 |
| 20260506211807 | 14 | 355 | 3.2 | 12.9 | 0.00 | 0.05 | 0.00 | 66 | 1015.4 |
| 20260506210809 | 14 | 15 | 4.8 | 14.5 | 0.00 | 0.05 | 0.00 | 63 | 1015.4 |
| 20260506205805 | 13 | 62 | 4.8 | 14.5 | 0.00 | 0.05 | 0.00 | 64 | 1015.5 |
| 20260506204805 | 14 | 52 | 6.4 | 16.1 | 0.00 | 0.05 | 0.00 | 63 | 1015.7 |
| 20260506203805 | 14 | 311 | 4.8 | 16.1 | 0.00 | 0.05 | 0.00 | 64 | 1016.1 |
| 20260506202804 | 14 | 9 | 3.2 | 9.7 | 0.00 | 0.05 | 0.00 | 64 | 1016.2 |
| 20260506202236 | 13 | 115 | 3.2 | 12.9 | 0.00 | 0.05 | 0.00 | 65 | 1016.3 |
| 20260506200803 | 14 | 323 | 4.8 | 12.9 | 0.00 | 0.05 | 0.00 | 64 | 1016.4 |
| 20260506200237 | 14 | 348 | 3.2 | 14.5 | 0.00 | 0.05 | 0.00 | 65 | 1016.4 |
| 20260506194801 | 13 | 59 | 3.2 | 16.1 | 0.00 | 0.05 | 0.00 | 66 | 1016.8 |
| 20260506193803 | 13 | 334 | 4.8 | 14.5 | 0.00 | 0.05 | 0.00 | 68 | 1017.0 |
| 20260506192800 | 13 | 20 | 6.4 | 16.1 | 0.00 | 0.05 | 0.00 | 65 | 1016.9 |
| 20260506191806 | 14 | 14 | 4.8 | 14.5 | 0.00 | 0.05 | 0.00 | 66 | 1016.8 |
| 20260506190803 | 14 | 5 | 4.8 | 14.5 | 0.00 | 0.05 | 0.00 | 67 | 1017.0 |
| 20260506185802 | 13 | 58 | 9.7 | 24.1 | 0.00 | 0.05 | 0.00 | 65 | 1017.0 |
| 20260506184802 | 13 | 51 | 4.8 | 17.7 | 0.00 | 0.05 | 0.00 | 67 | 1017.0 |
| 20260506183757 | 12 | 0 | 9.7 | 20.9 | 0.00 | 0.05 | 0.00 | 68 | 1017.3 |
| 20260506182759 | 12 | 90 | 6.4 | 17.7 | 0.00 | 0.05 | 0.00 | 66 | 1017.3 |
| 20260506181757 | 12 | 100 | 8.0 | 22.5 | 0.00 | 0.05 | 0.00 | 64 | 1017.5 |
| 20260506180753 | 12 | 24 | 8.0 | 24.1 | 0.00 | 0.05 | 0.00 | 67 | 1017.7 |
| 20260506175758 | 12 | 324 | 11.3 | 24.1 | 0.00 | 0.05 | 0.00 | 70 | 1017.8 |
| 20260506174753 | 12 | 349 | 6.4 | 16.1 | 0.00 | 0.05 | 0.00 | 72 | 1017.9 |
| 20260506173751 | 11 | 334 | 4.8 | 14.5 | 0.00 | 0.05 | 0.00 | 73 | 1018.1 |
| 20260506172754 | 11 | 22 | 6.4 | 16.1 | 0.00 | 0.05 | 0.00 | 74 | 1018.4 |
| 20260506171754 | 11 | 316 | 6.4 | 17.7 | 0.00 | 0.05 | 0.00 | 74 | 1018.6 |
| 20260506170747 | 11 | 0 | 6.4 | 19.3 | 0.00 | 0.05 | 0.00 | 75 | 1018.6 |
| 20260506165748 | 11 | 33 | 6.4 | 16.1 | 0.00 | 0.05 | 0.00 | 74 | 1017.8 |
| 20260506165254 | 11 | 18 | 4.8 | 14.5 | 0.00 | 0.05 | 0.00 | 74 | 1018.0 |
| 20260506163749 | 11 | 28 | 6.4 | 16.1 | 0.00 | 0.05 | 0.00 | 75 | 1017.8 |
| 20260506162748 | 11 | 46 | 4.8 | 14.5 | 0.00 | 0.05 | 0.00 | 76 | 1017.6 |
| 20260506162225 | 10 | 42 | 4.8 | 14.5 | 0.00 | 0.05 | 0.00 | 75 | 1017.3 |
| 20260506160746 | 10 | 34 | 4.8 | 16.1 | 0.00 | 0.05 | 0.00 | 75 | 1017.4 |
| 20260506155739 | 11 | 355 | 3.2 | 11.3 | 0.00 | 0.05 | 0.00 | 75 | 1017.4 |
| 20260506154739 | 11 | 60 | 3.2 | 16.1 | 0.00 | 0.05 | 0.00 | 76 | 1017.0 |
| 20260506154216 | 10 | 47 | 4.8 | 17.7 | 0.00 | 0.05 | 0.00 | 76 | 1017.0 |
| 20260506152736 | 10 | 67 | 3.2 | 12.9 | 0.00 | 0.05 | 0.00 | 78 | 1016.9 |
| 20260506151736 | 10 | 115 | 4.8 | 16.1 | 0.00 | 0.05 | 0.00 | 78 | 1017.3 |
| 20260506150732 | 10 | 47 | 3.2 | 11.3 | 0.00 | 0.05 | 0.00 | 79 | 1017.5 |
| 20260506145733 | 10 | 355 | 3.2 | 12.9 | 0.00 | 0.05 | 0.00 | 79 | 1017.3 |
| 20260506144734 | 9 | 10 | 4.8 | 17.7 | 0.00 | 0.05 | 0.00 | 80 | 1017.1 |
| 20260506143736 | 9 | 65 | 6.4 | 19.3 | 0.00 | 0.05 | 0.00 | 80 | 1017.0 |
| 20260506142733 | 9 | 10 | 6.4 | 19.3 | 0.00 | 0.05 | 0.00 | 80 | 1016.9 |
| 20260506142207 | 9 | 89 | 4.8 | 17.7 | 0.00 | 0.05 | 0.00 | 81 | 1016.7 |
| 20260506141223 | 8 | 40 | 4.8 | 14.5 | 0.00 | 0.05 | 0.00 | 82 | 1016.7 |
| 20260506135731 | 8 | 38 | 6.4 | 22.5 | 0.00 | 0.05 | 0.00 | 83 | 1016.8 |
| 20260506134736 | 8 | 41 | 6.4 | 17.7 | 0.00 | 0.05 | 0.00 | 83 | 1017.2 |
| 20260506133731 | 8 | 44 | 3.2 | 11.3 | 0.00 | 0.05 | 0.00 | 84 | 1017.2 |
| 20260506132731 | 8 | 34 | 6.4 | 14.5 | 0.00 | 0.05 | 0.00 | 84 | 1017.1 |
| 20260506132212 | 8 | 5 | 6.4 | 16.1 | 0.00 | 0.05 | 0.00 | 83 | 1017.0 |
| 20260506131223 | 8 | 75 | 4.8 | 22.5 | 0.00 | 0.05 | 0.00 | 84 | 1016.9 |
| 20260506130219 | 8 | 40 | 4.8 | 14.5 | 0.00 | 0.05 | 0.00 | 83 | 1016.8 |
| 20260506124731 | 8 | 298 | 6.4 | 16.1 | 0.00 | 0.05 | 0.00 | 83 | 1016.7 |
| 20260506123732 | 8 | 340 | 6.4 | 19.3 | 0.00 | 0.05 | 0.00 | 83 | 1016.6 |
| 20260506122731 | 8 | 19 | 4.8 | 22.5 | 0.00 | 0.05 | 0.00 | 83 | 1016.6 |
| 20260506122203 | 8 | 53 | 4.8 | 20.9 | 0.00 | 0.05 | 0.00 | 83 | 1016.1 |
| 20260506120729 | 7 | 36 | 6.4 | 17.7 | 0.00 | 0.05 | 0.00 | 82 | 1015.7 |
| 20260506115730 | 7 | 333 | 8.0 | 20.9 | 0.00 | 0.05 | 0.00 | 82 | 1015.7 |
| 20260506114730 | 8 | 314 | 8.0 | 20.9 | 0.00 | 0.05 | 0.00 | 82 | 1015.7 |
| 20260506113730 | 8 | 346 | 8.0 | 22.5 | 0.00 | 0.05 | 0.00 | 83 | 1015.5 |